Location: Ocean City
(38.3360°N, 75.0850°W)
Time: 06:07:50
(UTC-05:00)

Explorer 11/Cluster Stage 4 - Pass Details

Date: 20 November 2019
Orbit: 467 x 1259 km, 28.8° (Epoch: 15 December)

Event Time Altitude Azimuth Distance (km) Brightness Sun altitude
Rises 21:32:06 0° 255° (WSW) 3,339 - -55.7°
Reaches altitude 10° 21:34:37 10° 247° (WSW) 2,530 - -56.1°
Maximum altitude 21:40:12 36° 183° (S) 1,551 - -57.1°
Drops below altitude 10° 21:46:51 10° 120° (ESE) 3,023 - -58.3°
Sets 21:50:08 0° 113° (ESE) 4,074 - -58.9°
